Miscellaneous Local Product
Issued by NWS Hastings, NE

Home | Current Version | Previous Version | Graphics & Text | Print | Product List | Glossary On
Versions: 1 2 3 4 5 6 7 8 9 10 11 12 13 14 15 16 17 18 19 20 21 22 23 24 25 26 27 28 29 30 31 32 33 34 35 36 37 38 39 40 41 42 43 44 45 46 47 48 49 50
826
AXUS43 KGID 111702
MISGRI

GID CWA HOURLY WEATHER ROUNDUP
NATIONAL WEATHER SERVICE HASTINGS NE
1100 AM CST THU FEB 11 2016

NOTE: "FAIR" INDICATES FEW OR NO CLOUDS BELOW 12,000 FEET WITH NO
SIGNIFICANT WEATHER AND/OR OBSTRUCTIONS TO VISIBILITY.

...SOUTH CENTRAL NEBRASKA...

CITY           SKY/WX    TMP DP  RH WIND       PRES   REMARKS
GRAND ISLAND   CLOUDY    25  22  88 S8        30.23R FOG     WCI  16
HASTINGS       CLOUDY    26  23  88 S7        30.21F FOG     WCI  18
KEARNEY        CLOUDY    28  25  86 S14       30.19F WCI  17
ORD            CLOUDY    27  25  92 S9        30.16S FOG     WCI  18
YORK           CLOUDY    23  19  86 S5        30.25S WCI  17
AURORA         CLOUDY    24  22  92 SE10      30.21F WCI  14
LEXINGTON      CLOUDY    30  28  92 S14       30.15F FOG     WCI  19
HOLDREGE       CLOUDY    29  27  92 S9        30.19F WCI  20
HEBRON         CLOUDY    23  21  89 SE7       30.27S WCI  15

...NEBRASKA PANHANDLE...

CITY           SKY/WX    TMP DP  RH WIND       PRES   REMARKS
CHADRON        CLOUDY    45  30  55 SW8       30.06R
ALLIANCE       MOSUNNY   39  30  70 W13       30.06R WCI  31
SCOTTSBLUFF    SUNNY     50  27  40 NW15      30.10R
SIDNEY         CLOUDY    47  29  49 W10       30.10R

...WESTERN AND NORTH CENTRAL NEBRASKA...

CITY           SKY/WX    TMP DP  RH WIND       PRES   REMARKS
VALENTINE      CLOUDY    32  30  92 S10       30.05F WCI  24
AINSWORTH      CLOUDY    30  30  98 S10       30.08R FOG     WCI  21
ONEILL         CLOUDY    26  25  96 SE12      30.14F FOG     WCI  15
BROKEN BOW     CLOUDY    30  28  92 S13       30.13S WCI  20
IMPERIAL       MOSUNNY   41  29  62 W6        30.09F
NORTH PLATTE   PTSUNNY   29  26  89 S12       30.10F WCI  19
MCCOOK         CLOUDY    29  29 100 SE9       30.15F FOG     WCI  20

...EASTERN NEBRASKA...

CITY           SKY/WX    TMP DP  RH WIND       PRES   REMARKS
NORFOLK        CLOUDY    21  16  81 SE14      30.22F WCI   8
SO SIOUX CITY  CLOUDY    19  11  70 S12       30.30S WCI   7
TEKAMAH        CLOUDY    17   8  67 S6        30.33R WCI   9
COLUMBUS       CLOUDY    19   9  63 SE6       30.26S WCI  11
ALBION         CLOUDY    22  20  90 S9        30.21S FOG     WCI  12
OMAHA EPPLEY   CLOUDY    18   6  59 SE6       30.32S WCI  10
OFFUTT AFB     CLOUDY    19   7  58 SE7       30.31S WCI  10
MILLARD        CLOUDY    20   8  59 SE3       30.32R
LINCOLN        CLOUDY    22  17  81 E5        30.30S WCI  16
NEBRASKA CITY  CLOUDY    24  15  70 SE7       30.30S WCI  16
BEATRICE       CLOUDY    23  20  89 S6        30.29S WCI  15
FALLS CITY     NOT AVBL

...NORTHERN KANSAS...

CITY           SKY/WX    TMP DP  RH WIND       PRES   REMARKS
GOODLAND       CLOUDY    50  25  37 SW13      30.13F
HILL CITY      CLOUDY    30  28  92 S6        30.22S FOG     WCI  24
NORTON         CLOUDY    28  27  93 SE9       30.19S FOG     WCI  20
SMITH CENTER   CLOUDY    27  23  86 CALM      30.25S
BELOIT         CLOUDY    27  21  80 E6        30.27S WCI  20
HAYS           CLOUDY    28  18  64 CALM      30.24S
RUSSELL        PTSUNNY   34  26  72 NE7       30.23S WCI  28
CONCORDIA      CLOUDY    23  21  92 E3        30.28R FOG
SALINA         CLOUDY    29  23  78 VRB3      30.28F
TOPEKA         SUNNY     31  20  63 E7        30.30F WCI  24



USA.gov is the U.S. government's official web portal to all federal, state and local government web resources and services.